CST,Max TemperatureF,Mean TemperatureF,Min TemperatureF,Max Dew PointF,MeanDew PointF,Min DewpointF,Max Humidity, Mean Humidity, Min Humidity, Max Sea Level PressureIn, Mean Sea Level PressureIn, Min Sea Level PressureIn, Max VisibilityMiles, Mean VisibilityMiles, Min VisibilityMiles, Max Wind SpeedMPH, Mean Wind SpeedMPH, Max Gust SpeedMPH,PrecipitationIn, CloudCover, Events, WindDirDegrees
2014-2-1,20,10,0,11,1,-5,79,71,63,30.34,30.16,29.88,,,,28,16,32,0.00,,,324
2014-2-2,19,9,-1,7,1,-5,87,73,58,30.34,30.27,30.18,,,,25,10,30,0.00,,,255
2014-2-3,17,9,1,5,1,-8,87,70,53,30.53,30.35,30.21,,,,21,8,25,0.00,,,332
2014-2-4,3,-2,-7,-7,-9,-13,78,67,56,30.73,30.67,30.56,,,,20,11,23,0.00,,,357
2014-2-5,3,-1,-6,-5,-8,-12,79,71,62,30.76,30.73,30.66,,,,22,13,25,0.00,,,340
2014-2-6,5,-1,-8,-4,-9,-15,75,70,64,30.65,30.47,30.30,,,,28,15,33,0.00,,,292
2014-2-7,11,3,-5,-5,-9,-15,86,66,46,30.29,30.22,30.16,,,,24,9,29,0.00,,,259
2014-2-8,10,0,-10,3,-5,-13,87,77,66,30.42,30.26,30.15,,,,16,8,18,0.00,,,341
2014-2-9,4,-3,-10,-7,-11,-15,83,73,62,30.60,30.51,30.43,,,,22,10,26,0.00,,,332
2014-2-10,7,-3,-14,-4,-12,-19,83,72,60,30.65,30.60,30.53,,,,9,4,10,0.00,,,324
2014-2-11,27,8,-12,20,5,-16,87,77,67,30.50,30.17,29.96,,,,25,13,30,0.00,,,192
2014-2-12,22,9,-4,16,3,-7,84,73,61,30.27,30.05,29.54,,,,26,12,30,0.00,,,160
2014-2-13,37,20,3,28,7,-2,83,75,66,29.95,29.72,29.32,,,,43,23,54,0.01,,,333
2014-2-14,14,5,-5,5,-2,-10,95,81,67,30.22,30.11,29.96,,,,20,10,23,0.00,,,337
2014-2-15,26,14,2,20,8,-3,87,80,73,30.26,29.96,29.75,,,,29,13,35,0.00,,,42
2014-2-16,19,9,-2,15,6,-6,92,83,73,30.29,30.09,29.80,,,,28,15,35,0.00,,,163
2014-2-17,39,29,18,27,23,16,100,80,59,29.80,29.73,29.60,,,,29,13,38,0.07,,,269
2014-2-18,43,36,29,31,26,22,82,67,52,29.83,29.66,29.52,,,,23,12,29,0.00,,,296
2014-2-19,45,35,25,31,27,22,92,73,53,29.82,29.64,29.45,,,,28,10,33,0.00,,,238
2014-2-20,38,25,12,29,21,6,84,74,64,29.75,29.64,29.56,,,,33,19,39,0.00,,,330
2014-2-21,22,14,6,10,5,0,80,68,56,29.95,29.80,29.69,,,,31,21,38,0.00,,,328
2014-2-22,20,13,5,5,2,-2,83,66,49,30.30,30.13,29.97,,,,26,17,31,0.00,,,326
2014-2-23,21,13,5,6,2,-2,83,65,47,30.46,30.39,30.30,,,,24,16,35,0.00,,,324
2014-2-24,8,3,-2,1,-4,-9,86,75,63,30.55,30.49,30.45,,,,20,11,24,0.04,,,347
2014-2-25,8,1,-6,-4,-9,-13,75,67,58,30.59,30.52,30.45,,,,28,16,35,0.00,,,325
2014-2-26,24,10,-5,5,-5,-13,83,64,44,30.47,30.08,29.82,,,,38,23,48,0.00,,,317
2014-2-27,8,-3,-14,-7,-13,-20,77,61,45,30.34,30.21,29.99,,,,18,9,23,0.00,,,156
2014-2-28,19,9,-2,7,-3,-8,79,68,56,30.44,30.07,29.86,,,,32,16,38,0.00,,,6